Tracking 20623 objects as of 3-Apr-2020
HD Live streaming from Space Station
objects crossing your sky now

OPS 5805

Track OPS 5805 now!
OPS 5805 is classified as:


NORAD ID: 12093
Int'l Code: 1980-100A
Perigee: 1,828.4 km
Apogee: 38,490.8 km
Inclination: 63.4 °
Period: 716.8 minutes
Semi major axis: 26530 km
RCS: Unknown
Launch date: December 13, 1980
Source: United States (US)
Launch site: AIR FORCE WESTERN TEST RANGE (AFWTR)
aabbcc
Your satellite tracking list
Your tracking list is empty




NASA's NSSDC Master Catalog

Two Line Element Set (TLE):
1 12093U 80100A   20093.15471550 +.00001325 +00000-0 +00000-0 0  9997
2 12093 063.3731 093.0732 6909458 277.7940 015.0123 02.00901094006677
Source of the keplerian elements: AFSPC